(679) Pax
ephemeris date magn radius delta ra dec elong phase
Today27 Jul 202615.53.387 AU3.779 AU12h39m+19°23'60.0°15.0°
Opposition23 May 202713.83.055 AU2.124 AU16h23m+06°51'151.9°9.0°
(679) Pax - 2026-07-27
astro.vanbuitenen.nl


 
-1 year
-1 month
-1 day
Now
+1 day
+1 month
+1 year

The interactive orbit chart above shows the body's path through the solar system and its position at the given date. Green and blue lines are shown perpendicular to the ecliptic plane: Green if the path is above the ecliptic plane, blue if it is below. (Left-click and drag to rotate the view; Right-click and drag to move the view; Use scroll wheel to zoom in our out.)

The orbital elements of Pax are:

            e (Eccentricity)                : 0.3102645
            a (Semimajor axis)              : 2.5852735
            i (Inclination)                 : 24.41748
            Ω (Longitude of ascending node) : 112.07457
            ω (Argument of perihelion)      : 266.98668
            M (Mean anomaly)                : 165.94992
            Epoch                           : 2026 Jun 09

            L (Longitude of perihelion)     : 198.76589
            B (Latitude of perihelion)      : -24.38152
            P (Orbital period in years)     : 4.16            
        

The light curve chart below shows the estimated development of the minor planet's magnitude.


The all-sky chart below shows the path of the minor planet over the same period as the light curve. The current position is marked yellow.





The following chart shows the path of the minor planet in the next few days. The field of view is optimized for (~10x50) binoculars and finderscopes.




Ephemerides:
Date       Time       RA (2000)    DEC (2000)    delta   radius  elong  phase   PA    magn
2026-07-27 00:00 UT   12 39 40.2   +19 23 47     3.779    3.387   60.0   15.0   102   15.5 
2026-07-27 11:18 UT   12 40 04.5   +19 19 09     3.784    3.387   59.7   15.0   101   15.5 
2026-07-28 00:00 UT   12 40 31.9   +19 13 57     3.790    3.387   59.3   14.9   101   15.5 
2026-07-29 00:00 UT   12 41 24.1   +19 04 08     3.802    3.387   58.7   14.8   101   15.5 
2026-07-30 00:00 UT   12 42 16.8   +18 54 18     3.813    3.387   58.1   14.7   101   15.5 
2026-07-31 00:00 UT   12 43 10.0   +18 44 28     3.824    3.387   57.4   14.6   100   15.5 
2026-08-01 00:00 UT   12 44 03.6   +18 34 39     3.834    3.387   56.8   14.5   100   15.5 
2026-08-02 00:00 UT   12 44 57.7   +18 24 50     3.845    3.387   56.2   14.4   100   15.5 
2026-08-03 00:00 UT   12 45 52.2   +18 15 01     3.856    3.387   55.6   14.3    99   15.5 
2026-08-04 00:00 UT   12 46 47.2   +18 05 12     3.866    3.387   55.0   14.2    99   15.5 
2026-08-05 00:00 UT   12 47 42.6   +17 55 24     3.877    3.387   54.3   14.1    99   15.5 
2026-08-06 00:00 UT   12 48 38.5   +17 45 36     3.887    3.387   53.7   14.0    98   15.5 
2026-08-07 00:00 UT   12 49 34.8   +17 35 48     3.898    3.387   53.1   13.9    98   15.5 
2026-08-08 00:00 UT   12 50 31.5   +17 26 00     3.908    3.387   52.5   13.7    97   15.5 
2026-08-09 00:00 UT   12 51 28.7   +17 16 14     3.918    3.387   51.9   13.6    97   15.5 
2026-08-10 00:00 UT   12 52 26.3   +17 06 27     3.928    3.387   51.3   13.5    97   15.5 
2026-08-11 00:00 UT   12 53 24.2   +16 56 41     3.938    3.387   50.7   13.4    96   15.5 
2026-08-12 00:00 UT   12 54 22.6   +16 46 56     3.947    3.387   50.1   13.3    96   15.5 
2026-08-13 00:00 UT   12 55 21.4   +16 37 11     3.957    3.387   49.5   13.1    96   15.5 
2026-08-14 00:00 UT   12 56 20.6   +16 27 27     3.966    3.387   48.9   13.0    95   15.5 
2026-08-15 00:00 UT   12 57 20.1   +16 17 44     3.976    3.387   48.3   12.9    95   15.5 
2026-08-16 00:00 UT   12 58 20.1   +16 08 02     3.985    3.387   47.7   12.8    94   15.5 
2026-08-17 00:00 UT   12 59 20.3   +15 58 20     3.994    3.387   47.1   12.6    94   15.5 
2026-08-18 00:00 UT   13 00 21.0   +15 48 40     4.003    3.387   46.5   12.5    93   15.5 
2026-08-19 00:00 UT   13 01 22.0   +15 39 00     4.012    3.387   45.9   12.4    93   15.5 
2026-08-20 00:00 UT   13 02 23.4   +15 29 21     4.021    3.387   45.3   12.3    93   15.5 
2026-08-21 00:00 UT   13 03 25.1   +15 19 44     4.029    3.387   44.7   12.1    92   15.5 
2026-08-22 00:00 UT   13 04 27.1   +15 10 07     4.038    3.387   44.2   12.0    92   15.5 
2026-08-23 00:00 UT   13 05 29.5   +15 00 32     4.046    3.386   43.6   11.9    91   15.5 
2026-08-24 00:00 UT   13 06 32.2   +14 50 57     4.055    3.386   43.0   11.8    91   15.5 
2026-08-25 00:00 UT   13 07 35.3   +14 41 24     4.063    3.386   42.4   11.6    90   15.5 
2026-08-26 00:00 UT   13 08 38.6   +14 31 52     4.071    3.386   41.9   11.5    90   15.5 


    Terminology:
            
    delta:  distance between minor planet and earth in AU
    radius: distance between minor planet and sun in AU
    magn:   magnitude (brightness) estimate    
    ra:     right ascension in hours (24h = 360deg)
    dec:    declination in degrees
    elong:  elongation in degrees (angle sun-earth-minor planet)    
    phase:  phase angle in degrees (angle sun-minor planet-earth)        
    AU:     Astronomical Unit (mean distance between earth and sun: 149597870.7 km
    

Orbital elements provided by the MPC (Minor Planet Center).
Calculations by a modified version of AAPlus, a C# implementation of the AA+ project by PJ Naughter from the algorithms presented in the book "Astronomical Algorithms" by Jean Meeus.
NGC2000 dso catalog and star labels from VizieR as provided by the Strasbourg astronomical Data Center.
Tycho2 catalog from the ESO archive.